(°C)
19°
18°
18°
18°
19°
21°
23°
(°C)
19°
18°
18°
18°
19°
21°
23°
სსდ
სსდ
სდ
სდ
სსდ
დსდ
დსდ
(კმ/სთ)
9-21
9-19
9-19
9-16
7-17
9-18
11-18
(მმ)
0
0
0
0
0
0
0
(%)
0
0
0
0
0
0
0

მზის სიმაღლე

/ -11.8°
sun-icon
UV 5
05:11
20:53
მთვარე ბოლო კვარტალში (269°)
23:47
13:42

METAR 52.53°ჩრ. 31.02°აღმ. (UMGG)-თვის

დრო პირობები ტემპერატურა/
ნამი
ქარი ხილვადობა ამინდი ღრუბლები წნევა ცვლილება დაუმუშავებელი
VFR 19°C / 15°C 200º 8kt >10km - Clouds and Visibility OK 1008 No Significant change UMGG 310000Z 20004MPS CAVOK 19/15 Q1008 R28/D NOSIG
VFR 20°C / 15°C 220º 8kt >10km - Clouds and Visibility OK 1008 No Significant change UMGG 302300Z 22004MPS CAVOK 20/15 Q1008 R28/CLRD// NOSIG
VFR 21°C / 15°C 220º 6kt >10km - Clouds and Visibility OK 1008 No Significant change UMGG 302200Z 22003MPS CAVOK 21/15 Q1008 R28/CLRD// NOSIG
VFR 21°C / 14°C 220º 6kt >10km - Clouds and Visibility OK 1008 No Significant change UMGG 302100Z 22003MPS CAVOK 21/14 Q1008 R28/CLRD// NOSIG
VFR 22°C / 14°C 220º 6kt >10km - Clouds and Visibility OK 1008 No Significant change UMGG 302000Z 22003MPS CAVOK 22/14 Q1008 R28/CLRD// NOSIG
VFR 22°C / 13°C 230º 6kt >10km - Clouds and Visibility OK 1008 No Significant change UMGG 301900Z 23003MPS CAVOK 22/13 Q1008 R28/CLRD// NOSIG
VFR 24°C / 13°C 250º 8kt >10km - Clouds and Visibility OK 1008 No Significant change UMGG 301800Z 25004MPS CAVOK 24/13 Q1008 R28/D NOSIG
VFR 26°C / 12°C 280º 8kt >10km - Clouds and Visibility OK 1008 No Significant change UMGG 301700Z 28004MPS CAVOK 26/12 Q1008 R28/D NOSIG
VFR 27°C / 11°C 280º 10kt >10km - Clouds and Visibility OK 1008 No Significant change UMGG 301630Z 28005MPS CAVOK 27/11 Q1008 R28/CLRD// NOSIG
VFR 27°C / 11°C 290º 12kt Gust 17kt >10km - Clouds and Visibility OK 1008 No Significant change UMGG 301600Z 29006G09MPS CAVOK 27/11 Q1008 R28/CLRD// NOSIG
VFR 29°C / 12°C 280º 12kt Gust 17kt >10km - Clouds and Visibility OK 1008 No Significant change UMGG 301530Z 28006G09MPS CAVOK 29/12 Q1008 R28/CLRD// NOSIG
VFR 29°C / 12°C 300º 12kt Gust 17kt >10km - Clouds and Visibility OK 1008 No Significant change UMGG 301500Z 30006G09MPS CAVOK 29/12 Q1008 R28/D NOSIG
VFR 28°C / 12°C 290º 10kt Gust 16kt >10km - Clouds and Visibility OK 1008 No Significant change UMGG 301430Z 29005G08MPS CAVOK 28/12 Q1008 R28/CLRD// NOSIG
VFR 28°C / 12°C 290º 10kt Gust 16kt >10km - Clouds and Visibility OK 1008 No Significant change UMGG 301400Z 29005G08MPS CAVOK 28/12 Q1008 R28/CLRD// NOSIG
VFR 27°C / 13°C 240º 10kt Gust 16kt >10km - Clouds and Visibility OK 1008 No Significant change UMGG 301330Z 24005G08MPS CAVOK 27/13 Q1008 R28/CLRD// NOSIG
VFR 27°C / 13°C 260º 12kt Gust 17kt >10km - Clouds and Visibility OK 1009 No Significant change UMGG 301300Z 26006G09MPS CAVOK 27/13 Q1009 R28/CLRD// NOSIG
VFR 28°C / 13°C 250º 17kt Gust 25kt >10km - Clouds and Visibility OK 1009 No Significant change UMGG 301230Z 25009G13MPS CAVOK 28/13 Q1009 R28/D NOSIG
VFR 28°C / 13°C 290º 12kt Gust 17kt >10km - Clouds and Visibility OK 1009 No Significant change UMGG 301200Z 29006G09MPS CAVOK 28/13 Q1009 R28/CLRD// NOSIG
VFR 28°C / 14°C 270º 12kt Gust 17kt >10km - Clouds and Visibility OK 1009 No Significant change UMGG 301130Z 27006G09MPS CAVOK 28/14 Q1009 R28/CLRD// NOSIG
VFR 28°C / 14°C 280º 12kt Gust 17kt >10km - Clouds and Visibility OK 1009 No Significant change UMGG 301100Z 28006G09MPS CAVOK 28/14 Q1009 R28/D NOSIG
VFR 27°C / 14°C 270º 12kt Gust 17kt >10km - Scattered Clouds 4600ft 1009 No Significant change UMGG 301030Z 27006G09MPS 9999 SCT046 BKN100 27/14 Q1009 R28/D NOSIG
VFR 27°C / 14°C 280º 14kt Gust 19kt >10km - Broken Clouds 4800ft 1009 No Significant change UMGG 301000Z 28007G10MPS 9999 BKN048 BKN100 27/14 Q1009 R28/D NOSIG
VFR 27°C / 15°C 290º 10kt Gust 16kt >10km - Broken Clouds 4800ft 1009 No Significant change UMGG 300930Z 29005G08MPS 9999 BKN048 BKN100 27/15 Q1009 R28/CLRD// NOSIG
VFR 27°C / 15°C 300º 12kt Gust 17kt >10km - Scattered Clouds 5200ft 1009 No Significant change UMGG 300900Z 30006G09MPS 9999 SCT052 BKN100 27/15 Q1009 R28/CLRD// NOSIG

VFR

19°C / 15°C

[მეტი]
ქარი 200º 8kt
ხილვადობა >10km
ამინდი -
ღრუბლები Clouds and Visibility OK
წნევა 1008
ცვლილება No Significant change
დაუმუშავებელი UMGG 310000Z 20004MPS CAVOK 19/15 Q1008 R28/D NOSIG

VFR

20°C / 15°C

[მეტი]
ქარი 220º 8kt
ხილვადობა >10km
ამინდი -
ღრუბლები Clouds and Visibility OK
წნევა 1008
ცვლილება No Significant change
დაუმუშავებელი UMGG 302300Z 22004MPS CAVOK 20/15 Q1008 R28/CLRD// NOSIG

VFR

21°C / 15°C

[მეტი]
ქარი 220º 6kt
ხილვადობა >10km
ამინდი -
ღრუბლები Clouds and Visibility OK
წნევა 1008
ცვლილება No Significant change
დაუმუშავებელი UMGG 302200Z 22003MPS CAVOK 21/15 Q1008 R28/CLRD// NOSIG

VFR

21°C / 14°C

[მეტი]
ქარი 220º 6kt
ხილვადობა >10km
ამინდი -
ღრუბლები Clouds and Visibility OK
წნევა 1008
ცვლილება No Significant change
დაუმუშავებელი UMGG 302100Z 22003MPS CAVOK 21/14 Q1008 R28/CLRD// NOSIG

VFR

22°C / 14°C

[მეტი]
ქარი 220º 6kt
ხილვადობა >10km
ამინდი -
ღრუბლები Clouds and Visibility OK
წნევა 1008
ცვლილება No Significant change
დაუმუშავებელი UMGG 302000Z 22003MPS CAVOK 22/14 Q1008 R28/CLRD// NOSIG

VFR

22°C / 13°C

[მეტი]
ქარი 230º 6kt
ხილვადობა >10km
ამინდი -
ღრუბლები Clouds and Visibility OK
წნევა 1008
ცვლილება No Significant change
დაუმუშავებელი UMGG 301900Z 23003MPS CAVOK 22/13 Q1008 R28/CLRD// NOSIG

VFR

24°C / 13°C

[მეტი]
ქარი 250º 8kt
ხილვადობა >10km
ამინდი -
ღრუბლები Clouds and Visibility OK
წნევა 1008
ცვლილება No Significant change
დაუმუშავებელი UMGG 301800Z 25004MPS CAVOK 24/13 Q1008 R28/D NOSIG

VFR

26°C / 12°C

[მეტი]
ქარი 280º 8kt
ხილვადობა >10km
ამინდი -
ღრუბლები Clouds and Visibility OK
წნევა 1008
ცვლილება No Significant change
დაუმუშავებელი UMGG 301700Z 28004MPS CAVOK 26/12 Q1008 R28/D NOSIG

VFR

27°C / 11°C

[მეტი]
ქარი 280º 10kt
ხილვადობა >10km
ამინდი -
ღრუბლები Clouds and Visibility OK
წნევა 1008
ცვლილება No Significant change
დაუმუშავებელი UMGG 301630Z 28005MPS CAVOK 27/11 Q1008 R28/CLRD// NOSIG

VFR

27°C / 11°C

[მეტი]
ქარი 290º 12kt Gust 17kt
ხილვადობა >10km
ამინდი -
ღრუბლები Clouds and Visibility OK
წნევა 1008
ცვლილება No Significant change
დაუმუშავებელი UMGG 301600Z 29006G09MPS CAVOK 27/11 Q1008 R28/CLRD// NOSIG

VFR

29°C / 12°C

[მეტი]
ქარი 280º 12kt Gust 17kt
ხილვადობა >10km
ამინდი -
ღრუბლები Clouds and Visibility OK
წნევა 1008
ცვლილება No Significant change
დაუმუშავებელი UMGG 301530Z 28006G09MPS CAVOK 29/12 Q1008 R28/CLRD// NOSIG

VFR

29°C / 12°C

[მეტი]
ქარი 300º 12kt Gust 17kt
ხილვადობა >10km
ამინდი -
ღრუბლები Clouds and Visibility OK
წნევა 1008
ცვლილება No Significant change
დაუმუშავებელი UMGG 301500Z 30006G09MPS CAVOK 29/12 Q1008 R28/D NOSIG

VFR

28°C / 12°C

[მეტი]
ქარი 290º 10kt Gust 16kt
ხილვადობა >10km
ამინდი -
ღრუბლები Clouds and Visibility OK
წნევა 1008
ცვლილება No Significant change
დაუმუშავებელი UMGG 301430Z 29005G08MPS CAVOK 28/12 Q1008 R28/CLRD// NOSIG

VFR

28°C / 12°C

[მეტი]
ქარი 290º 10kt Gust 16kt
ხილვადობა >10km
ამინდი -
ღრუბლები Clouds and Visibility OK
წნევა 1008
ცვლილება No Significant change
დაუმუშავებელი UMGG 301400Z 29005G08MPS CAVOK 28/12 Q1008 R28/CLRD// NOSIG

VFR

27°C / 13°C

[მეტი]
ქარი 240º 10kt Gust 16kt
ხილვადობა >10km
ამინდი -
ღრუბლები Clouds and Visibility OK
წნევა 1008
ცვლილება No Significant change
დაუმუშავებელი UMGG 301330Z 24005G08MPS CAVOK 27/13 Q1008 R28/CLRD// NOSIG

VFR

27°C / 13°C

[მეტი]
ქარი 260º 12kt Gust 17kt
ხილვადობა >10km
ამინდი -
ღრუბლები Clouds and Visibility OK
წნევა 1009
ცვლილება No Significant change
დაუმუშავებელი UMGG 301300Z 26006G09MPS CAVOK 27/13 Q1009 R28/CLRD// NOSIG

VFR

28°C / 13°C

[მეტი]
ქარი 250º 17kt Gust 25kt
ხილვადობა >10km
ამინდი -
ღრუბლები Clouds and Visibility OK
წნევა 1009
ცვლილება No Significant change
დაუმუშავებელი UMGG 301230Z 25009G13MPS CAVOK 28/13 Q1009 R28/D NOSIG

VFR

28°C / 13°C

[მეტი]
ქარი 290º 12kt Gust 17kt
ხილვადობა >10km
ამინდი -
ღრუბლები Clouds and Visibility OK
წნევა 1009
ცვლილება No Significant change
დაუმუშავებელი UMGG 301200Z 29006G09MPS CAVOK 28/13 Q1009 R28/CLRD// NOSIG

VFR

28°C / 14°C

[მეტი]
ქარი 270º 12kt Gust 17kt
ხილვადობა >10km
ამინდი -
ღრუბლები Clouds and Visibility OK
წნევა 1009
ცვლილება No Significant change
დაუმუშავებელი UMGG 301130Z 27006G09MPS CAVOK 28/14 Q1009 R28/CLRD// NOSIG

VFR

28°C / 14°C

[მეტი]
ქარი 280º 12kt Gust 17kt
ხილვადობა >10km
ამინდი -
ღრუბლები Clouds and Visibility OK
წნევა 1009
ცვლილება No Significant change
დაუმუშავებელი UMGG 301100Z 28006G09MPS CAVOK 28/14 Q1009 R28/D NOSIG

VFR

27°C / 14°C

[მეტი]
ქარი 270º 12kt Gust 17kt
ხილვადობა >10km
ამინდი -
ღრუბლები Scattered Clouds 4600ft
წნევა 1009
ცვლილება No Significant change
დაუმუშავებელი UMGG 301030Z 27006G09MPS 9999 SCT046 BKN100 27/14 Q1009 R28/D NOSIG

VFR

27°C / 14°C

[მეტი]
ქარი 280º 14kt Gust 19kt
ხილვადობა >10km
ამინდი -
ღრუბლები Broken Clouds 4800ft
წნევა 1009
ცვლილება No Significant change
დაუმუშავებელი UMGG 301000Z 28007G10MPS 9999 BKN048 BKN100 27/14 Q1009 R28/D NOSIG

VFR

27°C / 15°C

[მეტი]
ქარი 290º 10kt Gust 16kt
ხილვადობა >10km
ამინდი -
ღრუბლები Broken Clouds 4800ft
წნევა 1009
ცვლილება No Significant change
დაუმუშავებელი UMGG 300930Z 29005G08MPS 9999 BKN048 BKN100 27/15 Q1009 R28/CLRD// NOSIG

VFR

27°C / 15°C

[მეტი]
ქარი 300º 12kt Gust 17kt
ხილვადობა >10km
ამინდი -
ღრუბლები Scattered Clouds 5200ft
წნევა 1009
ცვლილება No Significant change
დაუმუშავებელი UMGG 300900Z 30006G09MPS 9999 SCT052 BKN100 27/15 Q1009 R28/CLRD// NOSIG

TAF 52.53°ჩრ. 31.02°აღმ. (UMGG)-თვის

From till


Maximum Temperature 29ºC on . Minimum Temperature 17ºC on .
From till Wind 240º 12kt. Visibility 10km or more. Scattered Clouds 2500ft.
Temporarly from till Visibility 1200m. Mist . Broken Clouds 300ft.
Becoming from till Wind 270º 12kt. Gust 21kt. Visibility 10km or more. Scattered Clouds 2500ft.
Temporarly from till Wind 280º 16kt. Gust 25kt.
With 40% probability, Temporarly from till Visibility 3000m. Light Thunderstorm Rain . Broken Clouds 2500ft.

დაუმუშავებელი: TAF UMGG 302306Z 3100/3124 24006MPS 9999 SCT025 TX29/3112Z TN17/3102Z TEMPO 3100/3104 1200 BR BKN003 BECMG 3104/3106 27006G11MPS TEMPO 3108/3115 28008G13MPS PROB40 TEMPO 3110/3120 3000 -TSRA BKN025CB

მიმდინარე სატელიტისა და წვიმის სურათები 52.53°ჩრ. 31.02°აღმ.-თვის

ლოკაციის მარკერი დაყენებყლია 52.53°ჩრ. 31.02°აღმ.ზე. [მეტი]

რეალურ დროში სატელიტური სურათი აერთიანებს ხილულ სინათლეს დღისით ღამის განმავლობაში ინფრაწითელ გამოსხივებასთან ერთად. ღამით, სურათი არ არის მუქი, რადგან ინფრაწითელ გამოსხივებას შეუძლია ტემპერატურის განსხვავებების დადგენა. სამწუხაროდ, დაბალი ღრუბლები და ნისლი ძნელია განასხვავონ მიწის ტემპერატურისგან და, შესაბამისად, ისინი შეიძლება თითქმის არ ჩანდეს ღამით. Meteosat სატელიტური გამოსახულება ევროპისთვის ახლდება რეალურ დროში ყოველ 5 წუთში. GOES-16/GOES-17 (ჩრდილოეთი და სამხრეთ ამერიკა) და ჰიმავარი (აზია) გამოსახულებები ახლდება ყოველ 10 წუთში.

საავტორო უფლებები 2021 EUMETSAT / meteoblue. / საავტორო უფლებები 2021 meteoblue

რადარის და ნალექების მაჩვენებელი 52.53°ჩრ. 31.02°აღმ. -თვის

გაწურეთ
Მსუბუქი
ზომიერი
Მძიმე
Ძალიან მძიმე
სეტყვა

მდებარეობის მარკერი მოთავსებულია 52.53°ჩრ. 31.02°აღმ. -ზე. ეს ანიმაცია აჩვენებს ნალექების სარადარო მონაცემებს როგორც ბოლო საათის განმავლობაში, ასევე 1h პროგნოზს. ჟინჟღვლა და მსუბუქი თოვლი შესაძლოა რადარისთვის შეუმჩნეველი იყოს. ნალექის ინტენსიურობა ფერებით არის კოდირებული, დაწყებული ღია ცისფერიდან მუქ მეწამულამდე.